AirNav   Air Wisconsin Up To $57,000 Bonus
 
 1617 users online  

63M Hermann Municipal Airport
Hermann, Missouri, USA

GOING TO HERMANN?


FAA INFORMATION EFFECTIVE 14 JULY 2022

Location

FAA Identifier: 63M
Lat/Long: 38-42-18.6050N 091-29-25.9950W
38-42.310083N 091-29.433250W
38.7051681,-91.4905542
(estimated)
Elevation: 507.5 ft. / 154.7 m (surveyed)
Variation: 03E (1985)
From city: 3 miles NW of HERMANN, MO
Time zone: UTC -5 (UTC -6 during Standard Time)
Zip code: 65041

Airport Operations

Airport use: Open to the public
Activation date: 10/1998
Control tower: no
ARTCC: KANSAS CITY CENTER
FSS: SAINT LOUIS FLIGHT SERVICE STATION
NOTAMs facility: STL (NOTAM-D service available)
Attendance: UNATNDD
Wind indicator: lighted
Segmented circle: yes
Lights: ACTIVATE MIRL RY 07/25, PAPI RY 25 - CTAF.
Beacon: white-green (lighted land airport)
Operates sunset to sunrise.

Airport Communications

CTAF: 122.9

Nearby radio navigation aids

VOR radial/distance  VOR name  Freq  Var
FTZr267/24.3FORISTELL VORTAC110.8005E
VIHr011/34.6VICHY VOR/DME117.7006E
COUr101/34.6COLUMBIA VOR/DME110.2000E
HLVr123/38.6HALLSVILLE VORTAC114.2006E

Airport Services

Parking: hangars and tiedowns
Powerplant service: NONE
Bottled oxygen: NONE
Bulk oxygen: NONE

Runway Information

Runway 7/25

Dimensions: 3198 x 50 ft. / 975 x 15 m
Surface: asphalt, in excellent condition
Runway edge lights: medium intensity
RUNWAY 7  RUNWAY 25
Latitude: 38-42.208833N38-42.411333N
Longitude: 091-29.743500W091-29.123000W
Elevation: 506.5 ft.507.5 ft.
Traffic pattern: leftright
Markings: nonprecision, in good conditionnonprecision, in good condition
Visual slope indicator: 2-light PAPI on left (3.00 degrees glide path)
Touchdown point: yes, no lightsyes, no lights

Airport Ownership and Management from official FAA records

Ownership: Publicly-owned
Owner: CITY OF HERMANN
1902 JEFFERSON STREET
HERMANN, MO 65041
Phone 573-486-5400
Manager: GARY GEISLER
228 E. 1ST STREET
HERMANN, MO 65041
Phone 573-486-3370

Airport Operational Statistics

Aircraft based on the field: 15
Single engine airplanes: 12
Multi engine airplanes: 2
Ultralights: 1
    
Aircraft operations: avg 97/week *
67% local general aviation
31% transient general aviation
2% military
* for 12-month period ending 31 December 2021

Additional Remarks

BIRDS ON AND IN VICINITY OF ARPT.
BE ALERT TO LARGE AGRICULTURAL IRRIGATION SYSTEM DURING SPRING AND SUMMER MONTHS, APRX 300-400 FT FM RY 25 END.
PWR TRANSMISSION LINES AND CATENARY SUPPORT STRUCTURE 2600 FT FM RWY 25 THLD ON EXTENDED RWY CNTRLN.
USE CTN OPRG ON TWY AND APN - PAVEMENT SEVERELY DTRTD - FOD HAZ.
FOR CD CTC MIZZOU APCH AT 417-868-5620/5619.

Instrument Procedures

There are no published instrument procedures at 63M.

Some nearby airports with instrument procedures:

KFYG - Washington Regional Airport (24 nm E)
KFTT - Elton Hensley Memorial Airport (25 nm W)
KMYJ - Mexico Memorial Airport (31 nm NW)
KJEF - Jefferson City Memorial Airport (32 nm W)
KUUV - Sullivan Regional Airport (32 nm SE)
 
Loc | Ops | Rwys | IFR | FBO | Links
Com | Nav | Svcs | Stats | Notes
Area around 63M (Hermann Municipal Airport)
 
Road maps at: MapQuest Bing Google
 
Aerial photo
WARNING: Photo may not be current or correct
Aerial photo of 63M (Hermann Municipal Airport)
Photo by PCP

Do you have a better or more recent aerial photo of Hermann Municipal Airport that you would like to share? If so, please send us your photo.

 
Sectional chart

 
Airport distance calculator
Flying to Hermann Municipal Airport? Find the distance to fly.

From to 63M

Sunrise and sunset
Times for 09-Aug-2022
 Local
(UTC-5)
 Zulu
(UTC)
Morning civil twilight05:4710:47
Sunrise06:1511:15
Sunset20:0701:07
Evening civil twilight20:3601:36

Current date and time
Zulu (UTC)  09-Aug-2022 21:24:51
Local (UTC-5)  09-Aug-2022 16:24:51
 
METAR
KFYG 
24nm E 
092055Z AUTO VRB04KT 10SM 27/21 A3004 RMK AO2
KMYJ 
31nm NW 
092055Z AUTO 00000KT 10SM SCT039 27/19 A3007 RMK AO2
KJEF 
32nm W 
092053Z 10SM CLR 29/18 A3004 RMK AO2 SLP158 T02890178 58020
KCOU 
35nm W 
092054Z 01010KT 10SM FEW039 29/18 A3007 RMK AO2 SLP172 T02940183 56016
KVIH 
37nm S 
092053Z AUTO A3006 RMK AO2 SLPNO PWINO $
KSUS 
40nm E 
092054Z 03006KT 10SM SCT026 BKN033 OVC042 26/21 A3004 RMK AO2 SLP164 T02610211 58016 $
TAF
KJEF 
32nm W 
091738Z 0918/1018 VRB04KT P6SM BKN050 FM100100 04004KT P6SM FEW250 FM101000 VRB03KT 4SM BR SCT250 FM101300 VRB04KT P6SM SCT250
KCOU 
35nm W 
091738Z 0918/1018 04005KT P6SM BKN045 FM100100 05005KT P6SM FEW250
NOTAMs
Click for the latest NOTAMs
NOTAMs are issued by the DoD/FAA and will open in a separate window not controlled by AirNav.

 

 
 

Would you like to see your business listed on this page?

 If your business provides an interesting product or service to pilots, flight crews, aircraft, or users of the Hermann Municipal Airport, you should consider listing it here.  To start the listing process, click on the button below
 
Add a business
 

Other Pages about Hermann Municipal Airport

Update a link
 
Copyright © AirNav, LLC. All rights reserved. Privacy Policy  Contact